Regional Weather Roundup
Issued by NWS

Home | Current Version | Previous Version | Text Only | Print | Product List | Glossary On
Versions: 1 2 3 4 5 6 7 8 9 10 11 12 13 14 15 16 17 18 19 20 21 22 23 24 25 26 27 28 29 30 31 32 33 34 35 36 37 38 39 40 41 42 43 44 45 46 47 48 49 50
000
ASUS43 KLSX 171857
RWRMO

WEATHER SUMMARY FOR MISSOURI
NATIONAL WEATHER SERVICE SPRINGFIELD MO
100 PM CST SUN DEC 17 2017

NOTE: "FAIR" INDICATES FEW OR NO CLOUDS BELOW 12,000 FEET WITH NO
       SIGNIFICANT WEATHER AND/OR OBSTRUCTIONS TO VISIBILITY.
       CURRENT SKY AND/OR WEATHER CONDITIONS ARE NOT AVAILABLE FOR
       CHILLICOTHE AND FARMINGTON.

MOZ001>031-035>038-043-044-053-054-172000-
...NORTHERN AND WESTERN MISSOURI...

CITY           SKY/WX    TMP DP  RH WIND       PRES   REMARKS
KANSAS CTY INT CLOUDY    46  44  93 W6        29.97F
LEE`S SUMMIT   CLOUDY    46  44  93 SW6       29.98F
ST JOSEPH      CLOUDY    47  44  90 W3        29.97F
CHILLICOTHE      N/A     45  44  97 SW3       29.99F

$$
MOZ066>068-077>081-088>096-101>105-172000-
...SOUTHWEST MISSOURI...

CITY           SKY/WX    TMP DP  RH WIND       PRES   REMARKS
SPRINGFIELD    CLOUDY    48  45  89 SW8       30.01F
JOPLIN         CLOUDY    46  45  96 SW8       30.03F
BRANSON        CLOUDY    46  46 100 CALM      30.05F FOG

$$
MOZ032>034-039>042-045>050-055>058-069>072-172000-
...CENTRAL MISSOURI...

CITY           SKY/WX    TMP DP  RH WIND       PRES   REMARKS
COLUMBIA       NOT AVBL
JEFFERSON CITY CLOUDY    47  41  80 S7        30.02F
ROLLA          CLOUDY    45  42  89 S8        30.02F
SEDALIA        CLOUDY    46  45  96 SW12      30.02F
WARRENSBURG    CLOUDY    43  41  93 SW7       30.00F

$$
MOZ051-052-059>065-172000-
...EAST CENTRAL MISSOURI...

CITY           SKY/WX    TMP DP  RH WIND       PRES   REMARKS
ST LOUIS INTL  CLOUDY    52  35  52 SE3       30.03F

$$
MOZ072>076-082>087-097>100-106>115-172000-
...SOUTH CENTRAL AND SOUTHEAST MISSOURI...

CITY           SKY/WX    TMP DP  RH WIND       PRES   REMARKS
CAPE GIRARDEAU CLOUDY    45  42  89 SW8       30.10F FOG
POPLAR BLUFF   CLOUDY    46  42  86 SW5       30.09F

$$


USA.gov is the U.S. government's official web portal to all federal, state and local government web resources and services.